GFSSGP_500_spd_009.txt.gz
Wind_Speed
10 12 12 14 15 19 23 27 27 25 23 25 27 23 17 20 23 30 33 37 36 34 35 36 38 38 39 38 38 38 36 34 32 31 31 30 30 30 31 31 31 32 32 31 32 33 32 32 33
14 16 17 18 21 27 28 23 26 24 28 27 25 21 18 17 22 26 29 29 28 30 32 35 37 39 39 40 41 41 39 34 31 30 29 30 30 32 32 32 33 33 33 33 34 35 35 35 35
18 20 20 18 29 27 24 20 24 26 26 28 31 25 17 20 22 24 24 24 26 27 30 32 35 36 38 40 38 37 36 34 32 29 28 30 33 35 36 36 35 35 35 34 34 37 37 37 37
23 24 23 21 26 27 19 23 25 24 30 32 29 31 20 20 26 24 21 25 26 28 31 32 32 33 34 32 33 31 31 33 32 30 30 33 36 37 36 36 38 39 39 36 34 34 36 36 34
23 26 27 29 28 25 23 28 29 29 29 33 35 29 26 26 30 27 26 26 27 28 30 28 29 29 30 29 28 30 30 31 31 31 34 36 37 38 38 39 39 39 39 37 36 35 35 37 38
30 32 35 32 27 21 22 31 32 31 28 31 34 34 29 28 33 27 27 25 30 29 27 27 29 30 32 32 30 30 31 30 31 34 36 37 38 39 39 40 40 39 37 39 41 40 41 41 42
38 39 35 37 28 24 21 31 30 31 33 33 35 35 31 33 29 26 29 30 30 26 25 28 31 33 32 32 34 40 40 40 39 39 39 42 41 40 41 41 40 38 36 38 40 42 42 44 44
36 42 40 36 34 29 22 31 35 36 38 39 40 36 31 33 28 26 27 32 28 25 22 27 31 34 35 38 37 38 39 42 44 44 43 42 40 40 40 39 35 36 38 40 39 40 42 42 43
41 46 39 35 37 28 29 30 33 38 41 39 46 39 33 38 31 30 29 29 26 21 24 29 33 36 38 40 38 37 36 39 40 42 42 41 39 38 35 32 32 35 39 41 42 43 43 44 45
47 42 36 40 37 37 36 39 36 41 44 48 40 34 35 40 33 32 27 24 22 24 27 29 34 37 40 41 40 41 38 37 37 37 38 38 38 36 33 31 33 37 38 40 42 45 44 43 42
49 46 41 44 41 44 43 41 38 45 37 31 31 35 38 32 28 26 27 23 22 27 33 36 37 40 41 41 42 41 37 34 34 35 35 35 35 34 33 34 38 41 37 37 36 37 38 42 42
53 47 46 44 42 45 47 51 45 38 32 26 33 37 30 25 26 26 25 23 24 29 35 39 40 38 39 40 39 36 32 31 33 32 34 32 30 29 32 34 37 37 37 34 34 35 37 38 37
54 48 49 47 45 44 50 51 42 30 25 29 34 31 20 25 31 26 22 21 23 31 33 35 36 36 39 39 36 32 29 32 31 33 29 31 31 30 31 30 31 34 32 29 28 30 31 32 30
51 51 50 49 41 45 45 34 30 12 22 30 31 22 18 27 22 20 21 23 25 29 31 35 37 33 36 37 34 30 31 32 33 31 31 30 29 28 28 30 31 31 28 26 25 26 28 33 31
55 56 52 41 36 29 33 30 23 14 26 25 24 19 21 19 20 25 23 21 19 25 31 33 31 33 36 36 32 30 32 33 32 31 29 25 23 25 27 29 31 27 26 26 26 28 30 32 32
59 56 45 31 36 20 34 20 13 24 26 19 16 18 13 15 21 22 19 17 19 26 32 34 30 31 33 31 30 30 31 33 31 32 30 28 26 24 28 27 29 24 24 25 24 25 29 30 29
60 46 39 33 26 25 36 28 23 24 24 19 14 13 13 17 17 22 16 20 23 26 30 34 30 30 30 31 31 30 31 33 32 31 26 25 27 26 29 27 25 22 22 20 19 21 22 25 27
51 47 43 30 14 27 34 35 24 23 26 23 16 12 13 17 12 16 20 24 27 30 29 31 28 29 31 33 31 30 31 33 30 29 28 29 26 23 23 25 22 19 20 16 15 14 16 21 23
55 49 41 24 17 31 33 32 18 27 29 23 14 12 10 17 13 19 21 24 30 35 33 29 27 30 31 31 31 29 30 30 30 31 27 23 20 21 25 27 20 17 15 13 11 13 15 18 21
52 49 37 24 14 34 31 31 23 27 27 19 12 9 11 15 12 16 23 30 34 38 34 26 26 27 28 29 28 28 30 28 32 27 20 20 21 24 27 23 13 12 10 10 12 13 14 18 20
47 43 29 22 18 35 36 32 26 26 21 13 9 10 11 12 15 18 27 34 38 40 28 24 25 25 27 27 26 28 26 25 24 23 23 25 29 27 24 15 10 9 4 4 15 15 19 21 21
39 24 24 26 27 33 38 40 27 26 13 15 12 10 7 11 14 18 24 29 33 29 22 21 22 26 25 25 25 26 24 24 23 25 25 26 23 17 15 9 6 2 3 9 14 21 21 20 23
24 27 29 28 31 35 35 40 15 21 14 14 12 3 4 7 15 18 22 22 20 20 21 21 23 24 24 24 24 24 22 22 21 24 24 20 19 16 10 5 2 4 9 14 16 19 20 21 24
34 32 31 32 37 47 30 39 11 17 18 11 4 3 9 9 16 25 18 19 21 19 19 19 21 22 23 23 23 19 19 21 23 23 21 17 15 11 5 2 4 8 14 15 16 17 19 25 30
41 39 38 41 47 49 27 34 15 18 14 10 5 4 10 12 20 20 16 18 17 17 15 18 19 20 19 21 16 16 19 20 21 19 17 15 12 8 2 5 7 10 16 16 18 19 23 24 26
39 41 45 48 50 39 29 28 15 19 11 9 5 5 8 13 19 17 15 14 14 11 15 16 18 16 18 18 15 17 18 16 19 14 16 14 10 4 5 8 13 14 17 19 23 22 22 22 22
38 47 41 43 39 39 38 23 27 14 5 3 3 3 9 16 23 18 14 14 12 12 14 15 15 15 18 16 13 15 13 16 16 13 15 8 9 7 9 13 14 17 18 20 27 21 23 19 21
41 46 43 45 44 42 30 27 20 12 8 5 4 4 10 19 23 12 13 13 8 12 11 14 13 12 15 12 10 10 10 17 13 12 8 11 9 11 13 13 12 15 19 23 20 17 24 21 22
43 47 44 42 39 35 26 22 18 14 13 8 5 4 10 18 15 10 12 10 11 8 9 12 9 10 11 11 7 9 9 15 13 13 13 12 11 13 14 15 14 17 20 20 18 21 20 20 19
42 39 36 37 31 30 27 20 22 17 11 7 6 1 15 14 15 10 11 10 11 6 8 9 7 6 9 8 7 9 9 12 10 16 13 11 12 13 14 15 15 17 18 19 22 18 20 20 22

GFSSGP_500_spd_015.txt.gz
Wind_Speed
15 15 15 15 14 16 20 22 23 26 22 19 19 18 19 24 26 26 27 30 29 29 34 36 36 35 35 33 33 34 34 34 35 36 38 38 38 38 36 34 34 34 34 34 32 32 34 32 29
19 18 19 20 18 19 23 24 23 26 24 20 21 20 19 23 26 28 29 30 29 32 37 36 35 35 35 35 37 36 35 36 35 32 31 32 33 35 35 34 34 34 35 34 34 33 33 33 31
22 21 24 24 23 24 27 29 27 28 27 25 24 22 21 22 22 26 29 34 37 34 37 38 38 35 35 38 37 40 40 35 31 30 28 28 30 31 33 34 34 33 33 35 36 35 34 33 33
25 26 26 25 24 25 26 29 29 31 33 30 30 28 23 23 24 26 27 33 33 35 37 38 38 37 37 38 39 40 39 36 31 30 30 30 28 31 31 33 33 32 33 34 35 36 35 34 34
27 28 30 27 26 28 27 30 36 34 34 35 31 29 28 27 28 31 31 32 34 35 34 36 39 40 39 39 41 37 35 33 34 33 30 28 26 25 28 30 32 32 33 33 33 35 35 35 34
28 28 29 25 25 26 28 31 36 35 37 36 32 30 27 31 33 35 37 39 39 34 33 35 40 41 41 41 37 35 35 35 35 37 36 36 35 32 31 31 31 32 31 31 33 34 35 36 37
31 34 31 31 30 30 29 34 33 36 38 37 34 35 34 35 37 40 42 43 42 34 35 36 39 40 42 40 36 36 37 37 38 40 40 40 40 39 38 37 36 35 34 32 32 33 34 36 37
40 41 39 36 33 31 29 29 32 37 38 38 36 39 36 36 39 43 42 40 35 31 34 35 38 41 41 40 37 37 38 37 39 41 42 41 40 38 38 36 36 37 37 36 34 33 34 35 36
46 50 44 36 34 33 33 33 37 39 37 33 36 40 43 45 47 46 43 38 34 33 32 34 39 40 40 38 40 39 37 37 39 40 39 37 38 36 35 35 35 35 36 35 35 35 33 31 30
51 51 42 36 31 34 37 40 42 40 39 23 34 35 43 51 54 52 43 37 36 35 34 33 38 39 40 41 41 39 39 38 36 38 37 34 33 34 33 34 34 35 34 34 34 33 34 35 34
52 52 43 37 32 40 40 40 42 39 34 27 39 41 48 54 49 45 36 33 39 36 33 33 34 39 40 42 38 38 36 36 37 34 31 31 31 32 33 33 35 33 32 32 34 35 36 38 38
53 52 52 44 36 45 39 40 39 39 29 33 41 48 50 45 40 37 29 36 38 36 32 29 33 35 42 40 37 33 35 35 33 32 29 31 31 32 31 30 27 29 31 31 30 31 32 35 36
54 55 55 53 48 42 43 40 35 37 25 39 43 47 45 39 35 32 29 35 39 38 28 31 33 36 36 36 33 32 34 35 34 31 30 30 31 33 31 28 28 27 25 26 29 31 33 32 32
47 52 52 57 54 44 43 39 41 34 31 39 45 43 41 37 33 29 30 35 39 34 31 30 26 27 29 30 32 33 34 36 35 32 31 29 32 31 30 28 28 26 27 26 28 30 31 30 28
51 55 56 55 51 47 44 38 42 33 35 42 45 43 42 38 32 28 31 33 36 33 26 20 18 24 27 31 33 33 34 37 33 32 30 31 32 30 30 29 28 29 29 29 30 28 27 27 28
57 61 61 54 50 48 47 39 41 31 37 39 43 42 38 32 29 31 30 31 32 30 25 21 18 23 30 33 34 33 35 33 31 30 31 32 29 30 29 28 29 28 30 28 27 27 27 29 29
62 61 59 57 51 51 48 44 40 32 36 39 39 37 30 27 28 29 30 32 28 27 24 24 19 23 29 36 33 34 34 31 31 29 32 30 29 27 25 26 26 26 27 30 31 31 30 30 30
58 55 55 55 56 53 54 50 48 36 41 37 35 30 26 26 27 31 30 28 24 24 23 22 21 26 31 36 34 35 32 31 29 30 32 31 30 27 29 30 31 32 33 34 33 31 27 27 28
58 59 58 57 55 56 54 54 52 35 38 34 34 30 28 23 26 27 25 24 22 23 23 20 22 25 29 37 35 33 31 30 30 31 32 31 30 30 33 34 30 32 32 31 29 24 24 24 22
48 51 53 49 49 51 51 49 47 38 37 34 28 26 25 26 27 26 24 21 23 23 19 22 24 27 31 34 32 31 29 29 31 32 31 31 31 34 34 30 27 26 23 21 22 22 19 18 15
43 42 39 40 40 45 46 50 49 40 38 33 26 26 20 24 25 24 22 20 21 21 19 22 24 27 31 31 30 28 28 29 31 29 30 32 33 33 29 27 24 19 17 17 16 14 14 14 16
40 29 24 30 30 39 43 53 45 37 37 29 23 22 21 25 19 21 19 22 22 17 19 21 23 26 27 28 26 26 28 29 26 28 30 31 32 27 25 22 17 13 11 6 2 7 6 10 16
31 25 22 25 31 38 41 48 34 28 24 23 23 23 24 19 23 20 21 21 14 15 16 19 21 23 24 24 23 25 28 28 27 29 27 28 26 23 18 13 6 5 0 6 9 11 13 17 19
38 32 31 31 35 42 36 39 34 16 20 20 21 26 18 21 18 16 20 18 13 16 17 19 18 20 20 22 22 25 28 25 26 25 29 25 23 16 9 4 1 5 11 16 16 14 16 18 21
45 41 38 38 42 35 32 39 9 15 9 18 23 18 21 17 15 14 18 13 13 16 15 17 18 18 19 21 22 26 24 22 22 25 23 20 14 7 3 1 7 10 13 16 14 12 15 20 22
48 39 40 32 32 32 28 35 19 17 12 14 16 17 21 18 14 14 12 10 12 12 13 15 17 17 17 17 22 21 18 19 21 20 18 16 7 4 4 7 10 11 13 14 14 15 17 19 20
42 42 35 32 33 24 30 23 14 18 14 18 11 18 20 18 14 12 7 9 10 8 13 12 14 15 14 17 20 16 17 18 18 17 15 7 7 9 9 11 12 14 15 17 16 14 17 16 15
43 38 36 37 36 32 31 25 13 17 19 16 16 21 22 17 11 7 5 8 8 10 10 9 13 13 12 17 16 15 16 17 16 18 8 6 9 10 13 12 12 16 20 20 17 18 16 8 14
50 48 46 41 34 33 25 22 10 19 19 14 22 24 20 12 10 6 4 7 7 10 6 9 12 12 12 15 16 15 16 17 14 10 4 8 9 10 12 11 13 18 20 19 17 17 14 16 16
45 43 39 37 34 31 21 16 15 22 24 19 22 23 18 11 4 4 2 6 5 5 5 9 11 10 13 15 14 14 15 12 10 9 5 9 8 11 12 11 16 19 16 17 16 17 14 14 11

GFSSGP_500_spd_021.txt.gz
Wind_Speed
18 16 16 14 14 12 10 12 6 15 18 21 23 24 18 18 21 18 26 30 33 33 32 34 36 39 43 43 39 35 33 34 36 38 40 38 36 34 33 33 33 32 34 36 37 37 37 36 37
19 19 19 18 16 11 11 12 18 13 23 22 25 25 26 19 23 25 34 29 33 35 36 39 40 42 43 44 40 36 33 34 37 39 39 37 35 33 33 32 32 30 30 34 36 37 38 37 36
21 22 22 21 19 11 10 16 10 16 28 24 24 29 28 25 31 24 26 31 32 34 36 39 42 45 45 43 41 35 34 37 39 39 36 34 33 32 32 30 28 30 30 31 32 34 37 37 36
23 23 24 24 21 16 21 11 16 32 23 30 22 26 23 36 30 26 27 31 33 32 33 37 41 45 43 40 37 35 35 39 37 34 33 33 33 34 33 34 33 28 26 28 30 32 34 36 36
27 27 27 26 25 24 23 28 25 21 23 28 24 25 26 42 34 31 31 33 35 37 35 37 42 44 42 39 38 36 36 39 35 33 35 35 36 36 37 37 37 34 31 27 27 30 32 33 34
33 34 32 30 24 21 27 34 34 33 24 24 32 26 22 38 40 30 33 36 36 40 38 42 44 44 41 38 38 38 39 38 34 34 35 38 39 40 37 35 36 37 34 31 29 28 31 33 33
38 36 33 30 20 20 30 35 36 29 22 21 25 30 25 29 45 33 39 41 39 43 46 48 44 42 40 37 39 40 41 40 36 35 36 37 39 38 36 34 31 30 29 29 30 31 32 31 33
42 42 41 36 33 28 25 37 34 37 23 29 38 40 32 26 44 40 42 43 45 47 48 48 45 41 37 37 41 41 42 41 38 37 37 37 36 36 34 32 30 29 28 29 29 30 31 34 33
46 48 49 43 37 36 31 29 31 41 47 44 43 43 42 42 42 41 41 42 47 49 50 49 42 38 36 38 40 41 44 42 40 39 37 38 35 35 34 30 29 28 29 29 30 31 31 32 33
53 55 49 44 37 36 34 33 30 35 40 45 45 42 46 42 46 42 41 43 43 45 51 43 36 37 37 39 39 42 45 43 41 38 38 36 37 35 34 31 30 32 31 31 30 30 31 32 33
57 55 48 49 41 39 44 48 41 42 45 44 51 43 47 46 45 43 43 45 45 39 44 37 34 38 38 39 40 44 44 42 36 36 36 36 37 36 35 32 32 32 33 34 30 30 28 29 31
58 59 58 53 50 47 48 48 51 44 48 53 51 41 47 45 44 41 42 44 43 43 41 37 35 39 38 40 41 44 44 34 35 34 34 35 35 33 32 33 34 33 34 30 29 30 29 28 29
65 62 58 58 55 58 57 57 61 60 57 55 53 46 49 50 48 44 43 48 43 38 37 36 36 39 37 39 43 42 38 31 31 35 34 34 33 31 33 32 35 33 31 29 29 28 29 28 28
62 65 69 65 61 58 60 63 64 61 63 54 56 50 53 48 45 43 41 48 39 38 36 34 35 36 36 38 42 34 30 32 33 37 36 34 33 33 33 34 30 29 29 29 27 27 27 27 28
67 67 72 71 69 68 50 63 59 61 59 49 50 56 56 55 43 38 44 45 37 36 33 31 34 33 34 37 32 32 29 34 37 37 38 37 34 34 33 35 31 29 29 27 23 23 25 27 28
65 62 65 54 53 57 47 60 49 49 49 49 49 45 48 49 42 41 46 42 33 29 28 29 31 31 33 30 31 28 31 31 39 38 39 38 36 34 35 35 32 32 30 29 28 26 25 24 25
60 57 53 53 53 53 47 55 49 40 47 46 48 50 46 42 40 40 46 40 29 27 28 28 28 32 30 31 30 30 32 37 39 40 42 39 36 35 35 35 33 32 32 32 30 30 29 30 28
53 55 59 52 51 49 49 47 42 42 48 48 47 48 47 41 43 43 44 37 29 29 30 27 26 31 32 31 32 31 34 38 39 42 42 39 37 36 34 34 35 34 33 32 29 27 27 29 31
57 60 58 50 47 41 47 46 44 49 44 43 41 46 49 43 46 42 39 33 32 30 28 28 28 29 30 30 31 35 38 41 42 44 38 38 37 37 35 36 34 34 31 29 29 27 28 27 27
55 55 50 48 48 37 45 48 45 46 46 43 43 42 48 43 39 36 35 30 32 28 26 27 30 30 31 32 35 38 41 41 41 40 36 37 40 38 37 35 36 32 30 28 26 24 24 25 25
53 52 47 44 43 38 43 50 42 43 43 43 36 39 46 38 31 32 32 27 29 26 23 26 29 30 32 33 36 38 38 38 36 36 37 37 37 34 33 34 31 28 25 20 19 19 20 22 23
51 46 46 47 48 45 35 46 41 42 38 38 41 40 35 28 29 26 29 26 27 23 24 26 28 30 31 32 32 33 33 31 33 33 36 33 30 30 27 25 21 17 15 14 14 13 13 18 19
47 41 44 46 47 40 42 47 40 38 37 33 30 31 29 27 26 25 25 27 24 25 25 28 31 32 31 31 30 30 28 26 30 29 27 29 26 23 19 15 12 11 11 8 7 7 7 8 10
50 46 47 46 43 46 40 49 38 29 34 23 25 26 23 25 27 25 24 23 22 24 26 29 32 32 30 27 26 23 22 25 23 24 25 23 21 14 12 10 8 7 5 2 3 6 6 2 8
60 54 46 46 48 43 39 44 34 26 30 27 25 20 25 29 20 22 20 20 20 23 26 30 30 26 25 21 20 18 20 18 21 22 21 17 14 12 7 4 3 3 2 3 5 6 6 4 6
67 62 59 54 46 40 39 42 28 23 23 15 11 17 19 20 21 20 19 19 20 23 26 26 22 22 18 18 15 17 15 16 19 16 12 12 11 7 3 1 2 3 3 3 4 4 2 2 5
69 63 48 39 25 29 23 24 25 20 15 12 13 14 16 16 18 18 17 18 21 24 24 21 19 16 15 13 12 14 13 16 13 11 8 8 8 4 3 1 1 0 2 5 4 3 4 5 9
57 53 48 50 46 31 22 20 12 17 18 15 14 15 17 16 16 15 16 20 21 20 20 17 15 13 12 10 13 14 12 12 8 6 5 5 3 4 2 1 1 2 3 3 4 6 10 7 10
68 52 58 45 38 32 24 20 25 23 28 18 11 15 14 15 14 15 19 20 20 17 15 14 11 11 10 11 14 11 11 6 5 2 3 3 2 3 2 2 3 4 6 7 7 10 8 10 10
62 51 55 57 47 32 24 21 24 22 25 20 16 15 12 12 13 16 17 18 17 14 12 9 9 9 9 12 9 9 8 3 2 1 3 3 3 3 1 2 5 6 6 4 6 14 17 14 14

GFSSGP_500_spd_024.txt.gz
Wind_Speed
18 16 16 15 15 13 7 10 9 13 12 25 21 20 21 17 17 21 27 26 26 29 32 34 36 38 39 41 41 38 35 31 29 30 32 34 36 35 33 33 33 31 28 30 34 35 35 38 37
20 21 21 19 18 15 2 10 14 15 22 26 20 25 17 12 24 30 31 31 34 29 31 34 36 38 40 42 42 35 32 29 29 32 35 33 32 34 35 33 33 31 30 30 31 32 35 36 39
23 24 24 23 22 13 8 22 28 14 24 23 21 31 31 25 33 27 26 31 36 31 35 36 38 39 40 42 44 35 30 28 29 34 33 31 32 35 35 34 33 33 33 29 29 30 32 34 35
26 25 25 26 22 15 5 24 15 16 4 25 29 28 27 29 36 34 25 30 37 35 34 36 36 39 42 44 43 35 29 29 31 35 32 32 35 35 36 36 35 35 36 35 30 29 31 34 35
30 30 32 31 26 18 19 17 20 20 18 13 24 16 33 36 39 37 28 28 33 45 36 34 39 40 46 45 38 33 30 32 33 33 33 34 37 37 39 39 39 37 35 34 34 32 29 32 33
36 40 39 35 29 22 22 18 37 36 33 28 20 29 34 33 42 41 37 32 38 39 46 37 40 44 45 43 33 30 31 34 34 33 35 36 39 39 40 40 36 34 34 33 31 30 31 32 30
41 44 43 36 30 20 11 30 37 40 25 15 27 27 32 37 36 44 38 36 45 41 44 41 33 42 42 37 29 29 32 35 34 36 38 38 40 40 38 36 36 33 32 29 29 29 29 31 32
45 46 47 42 37 31 23 28 34 33 27 22 32 31 35 37 37 39 52 45 40 49 53 54 37 37 38 32 27 30 32 33 35 38 40 41 40 39 35 33 35 34 31 27 26 26 27 28 29
47 53 55 45 37 37 32 30 26 21 23 28 38 41 41 48 49 50 56 41 43 39 43 60 47 32 36 30 30 33 32 32 37 40 42 39 39 35 34 32 35 34 30 29 28 28 29 29 29
51 53 50 45 39 42 42 37 26 31 30 26 26 28 31 39 45 49 53 51 47 40 41 49 55 36 34 32 30 33 33 35 38 40 38 38 34 35 36 36 35 33 33 31 30 30 31 30 29
55 55 51 47 45 44 47 49 35 32 36 33 41 36 40 51 54 50 50 49 46 38 41 43 50 38 38 34 29 30 33 35 39 35 35 32 34 35 35 34 31 29 28 32 33 33 31 28 29
59 60 56 52 50 50 50 49 45 40 38 41 44 43 42 52 55 57 52 50 47 44 43 39 52 38 37 35 31 27 31 34 37 34 33 32 36 36 35 35 36 35 34 32 31 28 27 27 26
65 63 58 55 54 51 51 55 59 59 55 53 54 53 57 58 59 66 55 53 45 43 43 38 46 44 35 34 33 30 32 30 32 32 30 32 36 36 35 35 34 35 35 31 28 27 27 26 25
61 63 63 62 64 61 54 57 58 55 53 54 53 58 53 54 58 60 51 55 51 49 43 39 44 39 33 30 34 33 32 32 33 32 32 35 38 39 37 37 35 34 35 35 31 27 27 25 25
71 72 73 65 64 66 58 64 60 55 57 55 49 50 50 50 48 48 48 52 51 44 41 37 41 33 30 29 32 34 32 33 32 33 34 36 38 42 41 39 38 37 35 32 31 30 28 26 25
68 69 70 61 59 49 50 58 47 41 44 48 46 47 47 44 46 46 44 45 43 40 36 38 34 35 32 30 28 32 32 32 34 34 36 38 40 44 42 41 41 41 36 32 31 30 30 30 30
67 68 59 47 44 50 47 48 36 38 37 42 42 43 40 40 39 47 48 42 43 40 35 36 34 40 32 27 27 30 32 32 34 37 40 41 43 46 45 43 43 41 37 35 34 32 34 33 33
56 51 41 49 43 46 41 44 32 40 39 36 37 39 36 43 46 51 49 40 42 40 35 34 36 39 28 26 27 31 31 32 34 40 42 45 45 45 43 43 45 44 40 38 36 35 33 31 30
53 50 54 53 46 46 41 43 36 40 39 38 43 38 36 40 40 40 47 38 42 37 34 34 35 35 27 27 29 31 31 33 38 42 45 46 46 44 45 46 44 41 39 38 38 34 33 33 30
59 60 57 49 48 45 36 41 42 39 38 40 38 38 36 38 40 45 42 37 38 30 32 31 34 28 27 27 29 32 34 36 40 41 43 43 42 44 45 41 40 39 38 34 32 31 29 30 29
57 56 51 48 46 44 35 44 39 35 39 40 39 41 36 38 38 39 35 40 32 25 25 29 27 25 27 28 31 34 34 35 35 37 39 38 38 40 39 39 35 33 30 26 24 23 23 24 24
59 52 51 48 47 52 39 49 34 33 35 36 38 33 33 32 29 28 31 32 24 23 25 24 24 24 27 30 32 34 34 33 33 34 36 37 32 33 30 31 29 23 20 19 17 15 15 17 20
53 46 48 45 46 43 47 45 19 31 32 36 35 27 28 28 26 25 26 28 20 22 21 22 24 26 29 31 33 31 31 30 30 32 30 32 33 29 26 22 19 16 13 11 9 10 11 12 11
56 52 47 44 40 43 34 39 24 25 34 29 26 27 33 29 24 24 29 18 22 19 18 22 25 26 30 30 27 27 25 26 28 26 27 30 28 22 19 16 12 10 9 8 8 8 9 3 6
63 57 51 48 48 44 25 38 29 26 29 25 21 26 29 27 23 24 19 17 18 15 18 21 22 26 27 25 25 21 22 26 24 23 25 24 18 16 13 10 8 8 10 11 10 10 9 7 5
64 64 62 59 53 46 39 41 31 29 23 17 22 23 19 23 20 14 16 18 15 16 18 20 23 24 23 22 19 20 21 21 22 24 20 18 14 11 9 9 10 9 8 9 8 8 7 5 3
51 60 56 51 40 41 33 28 28 26 12 15 18 12 13 9 13 15 17 15 16 17 17 20 21 22 21 17 17 18 19 20 19 19 17 13 10 6 7 7 8 8 8 11 15 10 9 4 2
50 48 57 52 46 37 32 19 13 24 18 17 14 16 13 12 13 15 16 15 16 15 17 19 19 20 15 16 15 18 20 17 17 16 11 8 5 4 6 5 5 5 7 13 18 11 3 1 4
61 54 57 49 48 46 31 15 18 27 26 20 20 15 13 16 16 14 16 16 13 15 17 16 17 13 13 14 15 19 16 15 13 12 9 7 3 4 2 4 5 5 8 14 17 11 3 1 5
55 58 58 60 53 44 31 22 27 24 17 20 22 21 17 16 14 14 13 10 13 15 12 14 12 11 13 13 15 15 14 11 10 8 7 6 3 1 1 5 3 5 7 12 16 15 19 16 7

GFSSGP_500_spd_030.txt.gz
Wind_Speed
21 20 21 20 19 19 17 17 14 19 23 19 23 27 27 28 30 26 24 26 25 32 29 31 35 35 36 33 28 29 28 27 23 20 20 21 21 22 21 23 23 23 25 27 27 28 28 27 25
24 23 22 21 21 18 19 20 19 23 24 24 27 33 35 32 30 28 27 28 28 30 26 30 32 36 37 34 34 33 30 23 20 18 18 20 21 19 20 22 24 26 27 27 28 30 29 29 28
28 27 27 25 21 19 24 21 18 24 28 30 36 37 44 29 25 25 24 27 28 30 31 31 33 38 36 37 37 35 33 23 19 19 21 22 20 20 21 23 25 26 27 28 29 30 30 28 29
29 31 30 27 21 23 24 21 28 30 29 31 33 32 29 19 21 24 29 34 35 33 34 36 33 35 35 33 39 35 34 27 22 25 27 24 22 23 25 28 29 28 25 24 22 23 25 27 29
33 33 32 26 24 25 21 22 28 32 33 35 19 14 13 21 26 31 37 41 36 34 31 32 32 31 32 34 38 36 33 31 28 30 31 27 26 26 29 30 28 23 21 22 22 21 21 21 23
36 34 31 27 22 26 21 30 35 27 21 25 30 28 28 35 35 40 46 43 34 32 30 31 32 31 33 35 37 36 34 31 30 33 35 30 29 29 31 29 26 25 25 25 24 23 22 21 22
38 39 37 34 29 34 29 39 37 25 14 17 25 26 29 33 41 44 47 43 33 37 40 37 31 35 31 37 40 37 37 34 33 34 36 33 31 31 31 27 26 27 29 28 26 24 24 22 22
44 48 45 46 43 36 32 37 41 37 28 36 34 35 37 39 39 40 42 43 41 43 49 43 42 45 39 37 37 36 33 33 33 32 35 34 30 31 28 26 27 28 29 28 27 24 24 25 26
50 57 50 45 41 39 30 39 40 38 34 33 33 33 36 36 38 41 41 42 42 49 58 55 55 51 49 38 33 34 32 36 33 32 34 32 29 30 27 27 28 28 28 28 27 28 29 29 28
56 58 55 44 43 47 36 42 31 29 35 29 42 35 36 35 38 41 40 42 44 50 56 58 59 56 46 41 33 33 34 38 35 33 34 31 28 29 28 27 29 28 28 28 27 27 30 31 27
57 62 53 50 48 49 48 47 48 45 43 32 38 40 36 30 33 39 40 42 44 54 54 59 55 49 45 39 35 30 34 38 36 33 34 29 27 29 29 29 29 30 30 30 30 27 29 32 29
65 61 59 56 57 54 53 48 46 48 41 38 36 42 38 35 46 42 41 49 53 54 52 58 48 44 35 36 30 30 34 38 35 33 32 28 25 28 30 29 30 32 34 35 32 30 31 31 31
61 56 62 60 58 60 56 55 51 49 45 41 40 41 43 44 43 46 48 52 51 55 56 48 45 31 30 31 26 30 34 36 34 33 31 26 25 28 31 31 33 34 37 40 37 32 32 29 29
64 70 66 68 66 61 60 59 56 52 44 43 44 43 43 49 51 47 50 52 49 52 48 46 40 27 29 27 27 31 36 35 34 33 29 24 25 29 31 33 37 37 41 42 41 36 33 32 29
74 75 77 72 68 64 60 59 56 43 42 40 42 45 49 47 45 41 35 38 43 43 43 42 32 26 28 27 28 34 36 35 33 32 27 24 24 30 33 37 38 42 44 43 44 40 36 35 33
68 69 68 61 63 62 59 57 44 42 46 44 43 46 44 41 38 31 31 37 40 38 38 40 37 33 31 29 30 35 38 35 32 27 24 23 25 31 35 38 40 43 46 46 44 43 40 36 35
62 64 62 54 52 61 64 50 45 45 43 42 41 39 39 36 28 30 31 34 33 33 38 37 38 34 31 32 31 37 39 33 30 26 24 21 26 30 36 41 42 45 45 45 45 43 39 37 34
59 56 55 54 49 49 53 51 44 41 40 41 38 30 32 30 29 29 29 26 31 33 35 35 39 40 36 37 37 36 38 32 32 25 25 27 30 33 37 41 44 44 43 44 44 39 37 35 34
59 59 56 52 49 48 44 46 42 37 37 37 33 30 30 32 27 24 21 24 28 29 32 35 35 35 33 32 32 35 33 32 27 25 27 31 34 37 39 42 42 41 41 42 38 35 33 31 26
59 58 53 54 53 49 47 45 45 37 35 35 29 30 33 26 25 20 23 25 28 31 36 40 36 32 25 27 28 32 31 28 25 28 29 31 34 37 39 39 39 38 37 34 31 28 27 25 20
62 60 54 54 51 48 51 48 41 34 32 30 31 29 30 25 19 21 23 24 28 33 35 33 36 27 24 23 26 29 26 25 27 29 30 33 34 33 35 35 36 31 28 25 22 21 19 19 19
63 60 58 56 53 51 47 49 41 30 30 32 29 30 25 17 19 22 23 25 28 33 32 27 23 23 20 22 26 23 22 25 28 28 31 31 30 31 30 30 27 25 19 17 18 19 18 18 18
59 60 61 61 57 55 51 49 25 31 30 26 28 27 16 16 20 24 24 26 30 27 23 21 21 19 18 23 23 20 21 25 26 28 27 29 28 26 24 23 20 15 15 17 18 19 18 19 19
60 62 64 61 58 61 46 46 24 24 20 22 21 17 16 15 22 20 22 24 19 17 17 19 18 17 19 21 18 19 22 23 24 24 25 25 25 22 20 18 15 13 14 15 15 13 13 15 13
62 63 62 62 65 53 46 46 20 15 16 26 21 18 14 15 16 18 20 19 15 14 18 18 16 16 18 18 18 20 21 22 22 21 23 24 22 17 17 13 11 10 18 20 13 12 12 10 8
61 60 61 61 60 53 52 50 32 16 23 14 18 17 12 14 15 19 20 18 16 17 17 14 13 15 16 16 18 19 21 21 19 21 23 20 17 14 12 11 10 8 17 16 13 8 10 8 6
56 62 57 61 59 58 52 47 40 25 26 8 12 8 5 9 15 15 13 9 12 12 11 12 12 14 15 15 17 18 19 20 20 23 17 14 11 11 8 9 8 6 11 14 11 7 7 5 4
55 55 56 60 59 59 52 48 41 28 28 21 18 9 10 15 9 11 11 7 8 9 10 10 11 13 13 15 15 16 18 19 22 17 13 10 8 8 7 5 6 4 10 9 11 12 7 2 2
53 55 56 59 60 56 51 49 42 25 23 19 19 8 10 7 9 12 11 9 10 10 9 9 11 11 12 12 13 16 18 20 15 13 9 8 6 5 3 5 3 3 8 3 10 10 13 8 2
49 57 59 61 60 56 52 48 30 34 30 24 17 10 8 2 9 12 11 10 9 10 8 8 10 12 11 11 14 16 17 13 12 8 7 7 5 4 1 3 3 1 6 6 10 9 10 9 4

GFSSGP_500_spd_033.txt.gz
Wind_Speed
22 23 22 22 24 22 24 22 21 19 16 17 21 20 22 19 21 23 25 28 27 22 27 26 28 27 26 26 27 29 29 28 27 25 23 23 24 26 27 25 25 25 25 26 28 29 29 29 27
24 24 24 24 25 24 25 24 22 20 17 24 27 22 24 28 33 34 32 30 28 22 27 26 28 28 27 28 28 28 26 26 25 22 21 22 25 27 26 25 25 27 29 30 30 30 31 30 28
26 26 27 27 26 25 28 23 25 24 22 26 30 31 28 30 36 36 37 32 26 26 27 24 27 30 31 31 30 32 29 26 25 24 24 24 27 25 24 25 25 27 28 27 25 24 24 24 26
32 31 30 28 25 27 27 26 28 28 26 28 28 33 31 32 36 36 35 35 30 29 26 23 25 32 31 29 31 31 33 30 27 26 28 28 29 26 26 28 29 27 23 22 22 22 24 22 21
34 33 34 31 29 28 29 29 32 34 33 38 35 36 35 26 23 26 27 30 32 28 29 24 25 31 31 34 38 39 34 31 28 28 30 32 32 31 29 30 31 27 22 21 22 22 23 24 23
35 35 37 35 32 31 31 32 32 36 35 39 34 39 33 33 34 35 36 32 32 29 27 22 28 31 28 36 39 40 38 31 31 30 33 35 35 35 32 31 33 29 27 24 24 22 22 22 21
40 42 42 38 34 35 34 39 36 38 41 37 37 38 39 34 34 34 38 38 37 35 31 24 32 38 30 28 35 38 36 34 30 31 31 33 35 36 34 31 32 30 28 27 24 24 23 20 20
44 45 44 41 35 33 36 43 39 42 46 42 45 44 39 34 34 37 42 42 41 43 33 34 43 45 38 35 29 34 35 33 30 33 31 32 34 35 34 31 30 30 29 27 25 23 23 23 23
49 52 50 43 39 36 42 42 41 45 48 42 40 41 39 40 41 44 41 36 41 42 42 36 45 52 47 48 37 31 28 33 29 32 33 31 33 36 35 30 30 30 29 28 26 23 23 25 27
53 56 52 44 43 44 46 44 40 44 42 37 36 38 42 34 38 39 36 39 41 46 46 42 46 54 50 52 38 27 29 33 29 32 35 32 33 36 35 31 31 29 29 30 29 29 26 25 29
58 61 51 50 47 44 48 51 45 43 39 29 34 39 37 37 31 35 38 39 46 49 49 45 54 56 47 50 34 28 30 32 28 32 37 34 33 36 34 32 32 30 31 33 33 32 34 28 30
60 60 58 48 49 49 47 50 56 51 47 44 35 43 39 40 32 35 40 41 43 49 49 51 55 56 50 45 34 30 29 25 28 33 36 35 34 36 34 31 31 32 34 37 36 38 38 33 30
63 61 66 63 59 58 56 58 55 56 55 51 52 47 41 40 39 39 42 40 40 44 49 52 54 55 48 39 32 31 29 27 32 33 35 36 36 38 34 29 30 33 37 39 41 42 38 34 31
65 66 67 68 63 60 60 59 55 54 47 53 49 46 45 43 43 42 38 41 45 52 55 55 54 50 48 34 29 31 30 30 34 35 35 35 36 36 32 29 31 35 38 41 43 44 39 37 35
71 73 71 68 68 67 62 60 59 54 53 47 47 47 43 41 41 43 48 48 46 49 50 45 48 48 41 33 29 33 34 34 34 34 33 35 35 33 34 33 35 38 40 43 48 43 40 38 36
74 72 72 64 69 67 68 62 55 56 55 49 45 43 43 43 44 48 50 47 44 47 43 42 43 42 38 34 31 35 35 37 35 33 34 35 32 33 32 39 34 38 40 44 46 42 41 38 35
73 72 70 66 68 74 76 60 53 48 51 48 49 49 46 46 44 42 39 40 44 40 40 42 40 40 39 32 32 34 35 35 35 33 34 33 32 29 33 38 36 40 43 44 41 41 40 39 34
69 68 66 67 62 62 64 58 51 44 47 48 50 48 48 44 39 33 31 34 36 37 39 41 39 41 36 33 30 29 29 35 34 34 34 34 31 29 34 37 40 41 40 38 39 42 38 33 32
61 63 63 60 58 55 57 55 51 48 46 44 42 43 44 39 36 30 31 34 36 34 36 38 39 36 36 35 33 29 31 30 32 33 33 30 30 32 33 37 34 36 36 38 40 35 32 30 29
64 63 61 58 58 58 53 54 50 46 44 38 36 38 37 35 28 29 31 34 34 31 35 36 34 34 35 35 32 30 29 29 30 33 32 31 32 33 34 32 33 34 36 35 32 30 28 26 25
66 65 60 59 57 56 54 57 48 43 42 39 38 35 32 31 28 30 32 29 27 33 34 33 31 32 29 29 27 30 28 25 29 32 29 30 32 32 28 29 31 32 29 27 25 24 23 23 22
67 64 61 61 59 57 53 57 48 37 37 37 37 33 30 29 27 28 25 25 30 31 31 30 30 29 25 26 27 25 22 25 30 28 28 29 27 26 26 27 28 25 25 24 22 23 24 23 21
64 65 62 63 61 59 55 56 37 36 35 31 28 29 27 28 27 24 26 31 28 28 29 28 26 24 22 20 19 18 22 25 25 26 26 25 24 24 24 26 24 22 22 22 22 21 19 18 17
64 66 62 62 63 65 53 54 28 29 31 27 31 34 31 27 22 25 28 26 24 28 25 23 21 21 17 17 15 19 20 23 25 24 23 22 22 24 23 22 19 18 19 18 17 15 16 18 13
64 65 64 65 65 56 51 54 28 18 30 26 31 29 19 18 24 22 21 22 26 26 23 21 18 17 16 15 18 20 20 22 22 21 20 21 23 22 19 17 15 16 17 17 16 13 13 14 10
61 64 64 66 63 54 49 51 36 26 20 24 22 19 18 23 19 22 21 21 22 22 22 16 14 13 15 17 19 18 18 19 18 18 20 23 20 16 14 13 12 13 14 16 14 13 13 12 11
54 58 55 56 59 57 51 45 42 31 26 24 14 16 19 18 19 18 17 17 15 15 13 11 11 13 16 18 16 16 15 15 16 18 22 18 13 12 10 9 7 11 11 9 12 15 11 8 5
49 53 54 57 56 57 53 48 43 34 24 19 22 22 19 19 18 15 18 9 9 6 7 9 12 14 15 14 13 12 13 14 16 20 16 11 9 10 7 5 8 9 10 6 11 12 11 7 6
45 50 54 55 55 55 52 49 46 36 27 30 24 24 19 19 17 16 13 7 8 9 9 11 13 13 11 11 11 12 13 15 17 13 10 6 7 7 4 5 9 7 10 7 10 12 10 9 6
37 48 53 57 57 55 55 53 49 40 32 33 25 19 16 17 15 14 8 7 10 10 11 12 13 9 9 11 10 12 16 15 10 10 5 5 6 4 3 5 8 7 8 8 10 12 10 12 6

GFSSGP_500_spd_036.txt.gz
Wind_Speed
23 24 25 25 24 23 26 26 23 21 20 18 16 17 16 17 19 23 25 28 31 25 18 26 19 22 24 22 23 26 27 27 27 27 27 26 25 26 28 28 27 28 28 28 29 30 29 31 31
25 25 26 26 25 25 29 28 25 26 22 21 20 16 17 19 22 26 31 33 32 28 23 27 19 21 25 24 24 26 27 27 27 27 26 25 25 25 25 27 28 28 30 30 32 32 30 28 26
27 28 27 27 26 26 29 28 25 25 24 22 24 21 17 17 20 25 30 36 36 34 29 29 24 20 26 26 25 31 31 28 26 27 26 26 25 25 24 25 26 28 29 30 29 29 27 25 24
31 31 28 27 25 27 31 29 28 27 27 27 27 24 17 19 25 31 35 32 29 30 26 29 26 18 23 28 29 32 34 30 28 27 29 27 26 25 25 24 24 25 27 27 28 29 28 27 27
33 35 32 29 28 28 33 33 34 32 31 31 31 28 25 29 32 32 33 25 24 23 25 24 25 22 23 29 30 31 35 33 28 29 31 30 29 28 27 28 28 27 26 24 24 27 27 26 26
41 36 36 34 31 33 35 35 37 37 35 35 34 33 34 34 32 28 33 35 33 30 29 25 24 25 26 33 26 31 33 36 32 30 32 32 31 32 32 32 32 31 29 27 25 25 26 24 23
43 41 39 37 35 36 39 38 39 43 40 42 40 39 40 40 33 32 35 35 33 33 29 27 26 26 26 34 32 32 35 35 32 31 33 35 31 32 34 33 32 32 29 29 26 25 25 24 23
46 46 43 40 37 40 39 39 42 44 45 44 43 40 40 41 44 41 38 33 36 33 30 31 30 27 33 34 39 34 31 34 33 31 34 34 32 32 34 34 33 33 30 29 28 26 27 24 23
49 52 48 42 39 38 44 41 44 49 48 47 47 45 41 44 43 37 32 31 34 32 36 37 37 39 38 40 41 43 30 29 32 32 32 33 33 32 34 35 34 35 32 30 29 27 28 28 26
54 56 50 42 39 36 38 45 50 47 48 49 49 44 42 40 38 31 30 36 35 35 36 40 41 40 43 45 46 50 41 29 31 32 30 31 32 30 33 35 36 36 34 32 30 30 30 32 32
56 59 49 46 45 45 44 50 45 49 54 50 46 45 41 41 34 35 38 39 37 37 36 39 41 43 45 48 48 52 46 39 33 30 29 30 33 33 32 36 37 38 35 34 31 31 31 34 34
60 60 55 47 50 48 48 50 54 54 50 45 45 43 42 38 39 38 40 42 39 37 37 42 44 47 50 53 54 55 50 35 33 30 32 33 34 37 33 35 36 37 37 35 32 32 34 36 37
62 62 60 53 50 49 51 53 57 60 55 48 44 43 44 46 46 45 41 46 40 38 38 44 47 49 52 55 56 55 45 34 34 33 36 36 35 36 34 34 36 34 36 35 34 35 36 38 39
63 62 63 63 59 57 58 56 58 60 50 49 52 48 51 51 44 44 42 42 42 40 43 49 48 53 52 53 53 49 39 33 34 35 37 36 35 35 34 34 35 35 38 41 36 37 39 40 41
76 71 71 66 64 63 63 64 64 56 54 54 52 52 47 43 44 43 42 42 42 45 48 47 48 57 53 51 49 44 38 34 37 37 39 37 36 34 35 31 34 36 38 45 34 38 41 44 40
68 75 81 74 69 65 63 66 59 55 57 55 50 49 50 48 45 43 44 44 43 48 49 48 53 52 48 48 48 39 36 34 32 35 34 35 36 36 34 33 34 36 38 37 38 40 43 43 38
70 73 68 77 73 72 74 65 61 58 60 57 53 52 53 52 48 45 43 44 49 50 50 51 49 46 45 47 47 42 38 33 27 27 31 34 35 35 36 36 35 38 39 41 41 41 40 39 39
63 67 69 67 76 80 76 62 61 56 61 56 54 53 50 47 47 48 49 50 50 49 46 44 42 42 43 46 45 42 38 32 27 30 33 32 32 36 38 37 35 38 40 38 39 38 38 37 35
66 66 65 68 68 68 69 70 64 62 57 54 48 45 45 43 45 45 45 47 46 45 41 39 39 41 44 44 43 41 33 28 28 32 31 29 33 35 37 37 37 38 37 37 36 35 31 29 28
69 69 66 64 64 65 63 65 63 61 56 49 47 44 44 43 41 41 40 40 42 40 40 38 39 42 43 41 40 33 30 28 30 30 29 29 33 37 35 35 36 34 34 33 32 31 30 28 27
73 71 66 65 64 59 58 63 56 51 51 45 43 41 37 36 38 37 37 37 39 40 39 37 40 43 40 39 35 32 32 31 27 26 27 30 34 34 32 30 29 30 30 30 30 30 29 28 28
77 72 67 66 63 60 57 64 55 44 42 41 38 34 31 34 34 33 34 38 40 37 33 37 38 36 37 37 32 27 23 21 22 25 26 32 31 30 25 24 27 28 28 28 27 26 26 27 28
73 72 69 68 64 61 58 62 49 41 41 35 30 31 34 34 33 35 38 38 34 29 34 38 33 33 37 32 23 19 18 19 20 24 27 29 28 23 23 25 27 26 25 25 23 26 25 23 22
67 68 65 67 66 69 55 58 46 36 34 32 34 33 33 34 34 34 31 27 30 35 33 32 33 34 32 22 19 18 18 19 21 23 25 24 21 21 23 26 25 22 21 21 23 23 20 19 17
63 67 65 65 68 59 56 57 33 27 34 37 35 38 33 33 29 26 24 29 27 28 29 34 34 31 22 19 18 18 18 19 22 22 20 20 19 22 25 23 21 18 19 19 23 19 19 19 14
50 59 63 69 66 58 56 49 33 34 28 12 30 34 33 27 26 24 25 27 27 25 29 29 25 19 18 16 18 17 18 21 21 17 17 18 21 23 21 19 17 16 15 17 16 15 19 15 12
43 49 52 53 59 60 57 43 38 38 35 26 8 17 24 20 22 22 25 23 21 24 20 19 16 17 15 16 16 17 19 19 14 15 16 20 19 19 17 15 15 13 13 16 13 16 15 14 11
35 43 46 51 54 55 53 47 44 42 36 36 36 21 22 23 23 25 22 16 17 16 12 12 13 15 13 14 16 17 15 13 14 16 18 16 16 15 15 13 12 11 12 15 11 14 14 14 10
24 39 45 46 49 53 51 51 50 46 39 36 34 23 21 23 24 21 19 15 14 12 12 11 13 11 12 15 15 14 11 13 15 16 15 14 12 12 11 10 10 9 12 13 12 14 14 11 10
28 27 40 50 51 52 52 53 53 46 42 32 31 23 25 24 19 18 16 15 14 13 12 12 12 11 13 13 12 9 12 16 15 12 12 11 10 10 10 8 8 8 11 12 14 16 13 11 13